SR1WXW Weather Reports


Display with metric or nautical units.
time (UTC)temp
F
wind
direction
speed
MPH
gust
MPH
rain 1hr
in
rain 24hr
in
rain mn
in
humidity
%
barometer
mb
20210419130411 64 22 3.0 6.0 0.00 0.02 0.00 56 1012.9
20210419125916 64 45 3.0 8.0 0.00 0.02 0.00 57 1013.0
20210419125756 64 45 2.0 2.0 0.00 0.02 0.00 57 1013.1
20210419125041 64 67 0.0 5.0 0.00 0.02 0.00 57 1013.1
20210419124411 64 0 0.0 4.0 0.00 0.02 0.00 57 1013.3
20210419123915 64 22 0.0 4.0 0.00 0.02 0.00 56 1013.3
20210419123413 63 0 1.0 7.0 0.00 0.02 0.00 56 1013.3
20210419122912 63 270 0.0 7.0 0.00 0.02 0.00 56 1013.2
20210419122643 63 292 3.0 4.0 0.00 0.02 0.00 57 1013.2
20210419121924 63 337 0.0 6.0 0.00 0.02 0.00 56 1013.4
20210419121413 63 0 0.0 8.0 0.00 0.02 0.00 56 1013.4
20210419120913 63 315 2.0 8.0 0.00 0.02 0.00 57 1013.4
20210419120411 63 67 0.0 6.0 0.00 0.02 0.00 58 1013.4
20210419115913 62 292 6.0 11.0 0.00 0.02 0.00 58 1013.4
20210419115713 62 337 4.0 7.0 0.00 0.02 0.00 58 1013.5
20210419114911 62 225 0.0 5.0 0.00 0.02 0.00 59 1013.6
20210419114412 62 247 0.0 5.0 0.00 0.02 0.00 59 1013.6
20210419113911 62 67 0.0 5.0 0.00 0.02 0.00 59 1013.6
20210419113413 62 292 4.0 5.0 0.00 0.02 0.00 60 1013.6
20210419112911 61 315 4.0 5.0 0.00 0.02 0.00 59 1013.7
20210419112732 61 337 0.0 7.0 0.00 0.02 0.00 61 1013.8
20210419112056 61 0 0.0 6.0 0.00 0.02 0.00 62 1013.8
20210419111413 61 270 4.0 9.0 0.00 0.02 0.00 61 1013.9
20210419110911 60 292 2.0 7.0 0.00 0.02 0.00 62 1013.9
20210419110411 60 22 1.0 5.0 0.00 0.02 0.00 64 1013.9
20210419105940 60 270 2.0 5.0 0.00 0.02 0.00 65 1013.9
20210419105705 60 22 0.0 4.0 0.00 0.02 0.00 64 1013.9
20210419104958 59 337 2.0 3.0 0.00 0.02 0.00 65 1014.0
20210419104411 59 22 3.0 5.0 0.00 0.02 0.00 65 1014.1
20210419103912 59 315 2.0 5.0 0.00 0.02 0.00 65 1014.1
20210419103411 58 0 1.0 12.0 0.00 0.02 0.00 66 1014.0
20210419102913 58 292 1.0 4.0 0.00 0.02 0.00 66 1014.1
20210419102436 58 292 6.0 9.0 0.00 0.02 0.00 66 1014.2
20210419101920 58 270 2.0 6.0 0.00 0.02 0.00 68 1014.2
20210419101412 57 270 3.0 8.0 0.00 0.02 0.00 68 1014.3
20210419100913 57 292 5.0 9.0 0.00 0.02 0.00 68 1014.4
20210419100411 57 270 3.0 7.0 0.00 0.02 0.00 68 1014.2
20210419095911 57 292 4.0 5.0 0.00 0.02 0.00 70 1014.2
20210419095557 56 292 1.0 4.0 0.00 0.02 0.00 70 1014.3
20210419095019 56 292 2.0 6.0 0.00 0.02 0.00 70 1014.4
20210419094411 56 270 2.0 6.0 0.00 0.02 0.00 70 1014.4
20210419093911 55 292 1.0 6.0 0.00 0.02 0.00 71 1014.5
20210419093411 55 270 2.0 7.0 0.00 0.02 0.00 71 1014.6
20210419092911 55 270 0.0 6.0 0.00 0.02 0.00 72 1014.7
20210419092615 55 292 6.0 6.0 0.00 0.02 0.00 72 1014.7
20210419091926 55 292 4.0 5.0 0.00 0.02 0.00 72 1014.8
20210419091411 54 270 0.0 4.0 0.00 0.02 0.00 72 1014.8
20210419090912 54 292 3.0 5.0 0.00 0.02 0.00 72 1014.8
20210419090411 54 292 2.0 6.0 0.00 0.02 0.00 73 1014.8
20210419085911 54 0 3.0 6.0 0.00 0.02 0.00 72 1014.8
20210419085437 54 292 6.0 7.0 0.00 0.02 0.00 72 1014.8
20210419084927 54 270 2.0 8.0 0.00 0.02 0.00 72 1014.8
20210419084415 54 315 4.0 8.0 0.00 0.02 0.00 71 1014.9
20210419083912 54 292 4.0 9.0 0.00 0.02 0.00 71 1014.8
20210419083412 54 292 3.0 6.0 0.00 0.02 0.00 71 1014.9
20210419082911 54 292 4.0 5.0 0.00 0.02 0.00 70 1014.8
20210419082456 54 270 2.0 10.0 0.00 0.02 0.00 68 1014.8
20210419081920 55 292 8.0 10.0 0.00 0.02 0.00 67 1014.8
20210419081411 55 270 4.0 8.0 0.00 0.02 0.00 68 1014.8
20210419080912 55 315 5.0 7.0 0.00 0.02 0.00 68 1014.9
20210419080414 54 292 5.0 8.0 0.00 0.02 0.00 70 1014.9
20210419075913 54 292 4.0 6.0 0.00 0.02 0.00 71 1015.0
20210419075533 54 292 2.0 9.0 0.00 0.02 0.00 71 1015.0
20210419074948 53 270 3.0 6.0 0.00 0.02 0.00 73 1015.1
20210419074414 52 270 2.0 4.0 0.00 0.02 0.00 75 1015.1
20210419073912 51 292 5.0 6.0 0.00 0.02 0.00 75 1015.2
20210419073411 51 270 1.0 4.0 0.00 0.02 0.00 75 1015.2
20210419072911 51 270 2.0 7.0 0.00 0.02 0.00 75 1015.3
20210419072456 51 292 6.0 8.0 0.00 0.02 0.00 75 1015.3
20210419071946 51 270 2.0 6.0 0.00 0.02 0.00 76 1015.4
20210419071412 51 270 3.0 6.0 0.00 0.02 0.00 77 1015.3
20210419070916 51 270 3.0 5.0 0.00 0.02 0.00 79 1015.4
20210419070411 50 315 0.0 3.0 0.00 0.02 0.00 81 1015.4
20210419065911 50 315 0.0 4.0 0.00 0.02 0.00 82 1015.5
20210419065436 49 292 4.0 5.0 0.00 0.02 0.00 83 1015.5
20210419064952 48 315 3.0 3.0 0.00 0.02 0.00 86 1015.5
20210419064412 46 337 2.0 5.0 0.00 0.02 0.00 87 1015.6
20210419063911 46 270 5.0 9.0 0.00 0.02 0.00 88 1015.4
20210419063411 45 22 0.0 3.0 0.00 0.02 0.00 89 1015.5
20210419062911 44 0 1.0 2.0 0.00 0.02 0.00 90 1015.5
20210419062647 44 292 0.0 2.0 0.00 0.02 0.00 90 1015.6
20210419062025 44 337 0.0 1.0 0.00 0.02 0.00 91 1015.7
20210419061411 43 0 0.0 1.0 0.00 0.02 0.00 91 1015.7
20210419060915 43 315 0.0 2.0 0.00 0.02 0.00 91 1015.5
20210419060412 43 0 0.0 3.0 0.00 0.02 0.00 91 1015.4
20210419055913 42 270 1.0 3.0 0.00 0.02 0.00 91 1015.4
20210419055530 42 292 0.0 2.0 0.00 0.02 0.00 92 1015.5
20210419055019 42 270 1.0 5.0 0.00 0.02 0.00 92 1015.3
20210419054412 41 270 2.0 4.0 0.00 0.02 0.00 92 1015.3
20210419053915 41 292 2.0 6.0 0.00 0.02 0.00 92 1015.3
20210419053412 41 270 0.0 4.0 0.00 0.02 0.00 93 1015.4
20210419052913 41 292 1.0 2.0 0.00 0.02 0.00 93 1015.4
20210419052655 41 315 1.0 4.0 0.00 0.02 0.00 92 1015.4
20210419051919 40 292 4.0 5.0 0.00 0.02 0.00 93 1015.4
20210419051414 40 315 4.0 5.0 0.00 0.02 0.00 93 1015.3
20210419050913 40 270 3.0 6.0 0.00 0.02 0.00 93 1015.2
20210419050412 40 292 5.0 5.0 0.00 0.02 0.00 93 1015.3
20210419045913 39 270 3.0 5.0 0.00 0.02 0.00 93 1015.3
20210419045441 39 292 2.0 4.0 0.00 0.02 0.00 93 1015.2
20210419044947 39 270 0.0 4.0 0.00 0.02 0.00 93 1015.2
20210419044412 39 292 4.0 5.0 0.00 0.02 0.00 93 1015.1
20210419043912 39 315 2.0 4.0 0.00 0.02 0.00 93 1015.2
20210419043414 39 292 2.0 6.0 0.00 0.02 0.00 93 1015.2
20210419042916 39 292 2.0 5.0 0.00 0.02 0.00 93 1015.4
20210419042512 39 292 5.0 5.0 0.00 0.02 0.00 93 1015.4
20210419041934 39 292 4.0 6.0 0.00 0.02 0.00 93 1015.4
20210419041412 39 292 4.0 4.0 0.00 0.02 0.00 93 1015.3
20210419040913 39 292 3.0 6.0 0.00 0.02 0.00 93 1015.3
20210419040413 40 292 3.0 5.0 0.00 0.04 0.00 93 1015.4
20210419035915 40 270 1.0 4.0 0.00 0.04 0.00 93 1015.5
20210419035412 40 270 0.0 5.0 0.00 0.04 0.00 93 1015.4
20210419034915 40 292 3.0 4.0 0.00 0.04 0.00 93 1015.4
20210419034412 40 292 2.0 4.0 0.00 0.04 0.00 93 1015.5
20210419033806 41 270 0.0 2.0 0.00 0.04 0.00 92 1015.3
20210419033431 41 270 0.0 4.0 0.00 0.04 0.00 92 1015.4
20210419031913 41 270 1.0 4.0 0.00 0.04 0.00 93 1015.4
20210419031412 41 270 2.0 3.0 0.00 0.04 0.00 93 1015.4
20210419030912 41 292 1.0 4.0 0.00 0.04 0.00 93 1015.5
20210419030413 41 270 0.0 4.0 0.00 0.04 0.00 93 1015.4
20210419025914 41 315 2.0 4.0 0.00 0.04 0.00 93 1015.5
20210419025728 41 270 1.0 3.0 0.00 0.04 0.00 93 1015.5
20210419025026 42 270 0.0 3.0 0.00 0.04 0.00 92 1015.7
20210419024413 42 270 1.0 2.0 0.00 0.04 0.00 92 1015.6
20210419023912 42 270 0.0 3.0 0.00 0.04 0.00 92 1015.6
20210419023414 42 292 0.0 2.0 0.00 0.04 0.00 92 1015.6
20210419022953 42 292 2.0 3.0 0.00 0.04 0.00 92 1015.7
20210419022800 42 292 3.0 3.0 0.00 0.04 0.00 92 1015.8
20210419022052 42 292 2.0 3.0 0.00 0.04 0.00 92 1015.7
20210419021412 42 292 1.0 3.0 0.00 0.04 0.00 92 1015.9
20210419020913 42 270 0.0 2.0 0.00 0.04 0.00 91 1015.9
20210419020412 43 292 1.0 2.0 0.00 0.04 0.00 91 1015.9
20210419015914 43 270 0.0 3.0 0.00 0.04 0.00 92 1015.9
20210419015737 43 292 0.0 5.0 0.00 0.04 0.00 92 1015.9
20210419014923 43 292 2.0 3.0 0.00 0.04 0.00 92 1015.9
20210419014412 43 292 2.0 4.0 0.00 0.04 0.00 92 1016.0
20210419013914 43 292 2.0 2.0 0.00 0.04 0.00 92 1016.1
20210419013417 43 292 2.0 3.0 0.00 0.04 0.00 91 1016.0
20210419012913 44 292 2.0 2.0 0.00 0.04 0.00 91 1016.1
20210419012747 44 292 0.0 2.0 0.00 0.04 0.00 91 1016.0
20210419012051 44 292 0.0 2.0 0.00 0.04 0.00 91 1016.0
20210419011421 44 270 0.0 0.0 0.00 0.04 0.00 91 1016.1
20210419010916 44 270 0.0 0.0 0.00 0.04 0.00 91 1016.2
20210419010414 44 270 0.0 0.0 0.00 0.04 0.00 91 1016.2
20210419005955 44 292 0.0 0.0 0.00 0.04 0.00 90 1016.2
20210419005800 44 292 0.0 0.0 0.00 0.04 0.00 90 1016.2
20210419005105 44 270 0.0 2.0 0.00 0.04 0.00 90 1016.2
20210419004413 44 270 0.0 1.0 0.00 0.04 0.00 90 1016.1
20210419003915 44 292 1.0 2.0 0.00 0.04 0.00 90 1016.2
20210419003413 44 292 2.0 2.0 0.00 0.04 0.00 90 1016.1
20210419003204 44 292 0.0 1.0 0.00 0.04 0.00 90 1016.1
20210419002926 44 292 0.0 2.0 0.00 0.04 0.00 90 1016.1
20210419002207 44 292 0.0 3.0 0.00 0.04 0.00 90 1016.1
20210419001412 44 270 0.0 0.0 0.00 0.04 0.00 90 1016.2
20210419000912 44 270 0.0 0.0 0.00 0.04 0.00 90 1016.3
20210419000421 44 292 0.0 2.0 0.00 0.04 0.00 90 1016.3
20210418235914 44 292 1.0 2.0 0.00 0.04 0.00 90 1016.4
20210418235725 44 292 0.0 2.0 0.00 0.04 0.00 90 1016.5
20210418235043 44 292 0.0 1.0 0.00 0.04 0.00 90 1016.5
20210418234423 44 292 0.0 2.0 0.00 0.04 0.00 90 1016.6
20210418233912 44 292 2.0 2.0 0.00 0.04 0.00 90 1016.6
20210418233414 44 292 0.0 0.0 0.00 0.04 0.00 90 1016.6
20210418233130 44 270 0.0 0.0 0.00 0.04 0.00 90 1016.6
20210418232938 44 292 0.0 0.0 0.00 0.04 0.00 90 1016.7
20210418232354 44 292 0.0 0.0 0.00 0.04 0.00 90 1016.9
20210418231423 44 292 0.0 0.0 0.00 0.04 0.00 90 1016.9
20210418230912 44 270 0.0 0.0 0.00 0.04 0.00 90 1017.0
20210418230413 44 337 0.0 0.0 0.00 0.04 0.00 90 1016.9
20210418225918 44 292 0.0 0.0 0.00 0.04 0.00 90 1017.0
20210418225833 45 292 0.0 0.0 0.00 0.04 0.00 90 1017.0
20210418225125 45 292 0.0 0.0 0.00 0.04 0.00 90 1017.0
20210418224422 45 292 0.0 0.0 0.00 0.04 0.00 90 1017.1
20210418223917 45 315 0.0 0.0 0.00 0.04 0.00 90 1017.0
20210418223415 45 337 0.0 0.0 0.00 0.04 0.00 90 1017.2
20210418222959 45 315 0.0 0.0 0.00 0.04 0.00 90 1017.1
20210418222830 44 0 0.0 0.0 0.00 0.04 0.00 90 1017.2
20210418222126 44 0 0.0 0.0 0.00 0.04 0.00 90 1017.1
20210418221424 44 337 0.0 0.0 0.00 0.04 0.00 90 1017.0
20210418220913 44 0 0.0 0.0 0.00 0.04 0.00 90 1017.1
20210418220414 45 337 0.0 0.0 0.00 0.04 0.00 90 1017.1
20210418215920 44 337 0.0 0.0 0.00 0.04 0.00 90 1017.0
20210418215825 44 337 0.0 0.0 0.00 0.04 0.00 90 1017.1
20210418215142 44 315 0.0 0.0 0.00 0.04 0.00 90 1017.1
20210418214413 44 0 0.0 0.0 0.00 0.04 0.00 90 1017.1
20210418213913 44 292 0.0 0.0 0.00 0.04 0.00 90 1017.1
20210418213419 44 315 0.0 0.0 0.00 0.04 0.00 90 1017.2
20210418212940 44 337 0.0 0.0 0.00 0.04 0.00 90 1017.2
20210418212824 44 315 0.0 0.0 0.00 0.04 0.00 90 1017.2
20210418212120 44 292 0.0 0.0 0.00 0.04 0.00 90 1017.1
20210418211430 44 315 0.0 0.0 0.00 0.04 0.00 90 1017.2
20210418210913 44 337 0.0 0.0 0.00 0.04 0.00 90 1017.2
20210418210417 44 315 0.0 0.0 0.00 0.04 0.00 90 1017.3
20210418210025 44 292 0.0 0.0 0.00 0.04 0.00 90 1017.2
20210418205913 44 315 0.0 0.0 0.00 0.04 0.00 90 1017.1
20210418205113 44 292 0.0 0.0 0.00 0.04 0.00 89 1017.2
20210418204418 45 292 0.0 0.0 0.00 0.04 0.00 89 1017.1
20210418203914 45 292 0.0 0.0 0.00 0.04 0.00 89 1017.1
20210418203418 45 315 0.0 0.0 0.00 0.04 0.00 89 1017.1
20210418202942 45 292 1.0 2.0 0.00 0.04 0.00 89 1017.2
20210418202822 45 292 0.0 1.0 0.00 0.04 0.00 88 1017.1
20210418202123 45 315 1.0 2.0 0.00 0.04 0.00 88 1017.2
20210418201432 45 315 0.0 0.0 0.00 0.04 0.00 88 1017.1
20210418200913 46 315 0.0 1.0 0.00 0.04 0.00 87 1017.1
20210418200418 46 315 0.0 0.0 0.00 0.04 0.00 86 1017.1
20210418200020 46 315 0.0 0.0 0.00 0.04 0.00 86 1017.0
20210418195816 46 0 0.0 0.0 0.00 0.04 0.00 86 1017.0
20210418195040 46 0 0.0 0.0 0.00 0.04 0.00 86 1017.0
20210418194419 46 67 0.0 0.0 0.00 0.04 0.00 86 1017.0
20210418193914 46 90 0.0 0.0 0.00 0.04 0.00 86 1017.0
20210418193413 46 90 0.0 0.0 0.00 0.04 0.00 85 1017.0
20210418193035 46 90 0.0 0.0 0.00 0.04 0.00 85 1017.0
20210418192911 46 90 0.0 0.0 0.00 0.04 0.00 85 1017.0
20210418192144 46 45 0.0 0.0 0.00 0.04 0.00 85 1017.0
20210418191416 47 45 0.0 0.0 0.00 0.04 0.00 85 1017.0
20210418190913 47 22 0.0 0.0 0.00 0.04 0.00 84 1016.9
20210418190414 47 315 0.0 0.0 0.00 0.04 0.00 84 1016.8
20210418185914 47 292 0.0 0.0 0.00 0.04 0.00 84 1016.8
20210418185700 47 292 0.0 0.0 0.00 0.04 0.00 83 1016.9
20210418184948 48 67 0.0 0.0 0.00 0.04 0.00 83 1016.8
20210418184422 48 67 0.0 0.0 0.00 0.04 0.00 83 1016.8
20210418183913 48 67 0.0 0.0 0.00 0.04 0.00 83 1016.7
20210418183418 48 67 0.0 0.0 0.00 0.04 0.00 83 1016.6
20210418182913 49 45 0.0 0.0 0.00 0.04 0.00 83 1016.6
20210418182721 49 45 0.0 0.0 0.00 0.04 0.00 82 1016.7
20210418182053 49 45 0.0 0.0 0.00 0.04 0.00 82 1016.6
20210418181416 49 45 0.0 0.0 0.00 0.04 0.00 82 1016.6
20210418180926 49 67 0.0 0.0 0.00 0.04 0.00 82 1016.5
20210418180416 50 90 0.0 0.0 0.00 0.04 0.00 82 1016.4
20210418175918 50 67 0.0 0.0 0.00 0.04 0.00 81 1016.5
20210418175749 50 67 0.0 0.0 0.00 0.04 0.00 81 1016.4
20210418174932 50 45 0.0 0.0 0.00 0.04 0.00 81 1016.4
20210418174416 51 67 0.0 0.0 0.00 0.04 0.00 81 1016.3
20210418173914 51 90 0.0 0.0 0.00 0.04 0.00 81 1016.2
20210418173423 51 90 0.0 0.0 0.00 0.04 0.00 81 1016.2
20210418173040 51 90 0.0 1.0 0.00 0.04 0.00 81 1016.2
20210418172855 52 45 0.0 1.0 0.00 0.04 0.00 81 1016.2
20210418172100 52 67 0.0 4.0 0.00 0.04 0.00 80 1016.2
20210418171453 52 90 0.0 1.0 0.00 0.04 0.00 81 1016.1
20210418170913 52 67 0.0 3.0 0.00 0.04 0.00 81 1016.1
20210418170414 52 67 0.0 3.0 0.00 0.04 0.00 81 1016.1
20210418165913 52 90 0.0 3.0 0.00 0.04 0.00 81 1016.0
20210418165642 52 90 2.0 4.0 0.00 0.04 0.00 82 1016.0
20210418164926 52 90 2.0 7.0 0.00 0.04 0.00 83 1015.9
20210418164422 52 67 2.0 4.0 0.00 0.04 0.00 85 1015.9
20210418163914 52 90 2.0 2.0 0.00 0.04 0.00 85 1015.9
20210418163421 51 67 2.0 2.0 0.00 0.04 0.00 85 1015.8
20210418163121 51 67 0.0 2.0 0.00 0.04 0.00 86 1015.7
20210418162914 51 67 0.0 3.0 0.00 0.04 0.00 86 1015.7
20210418162243 51 90 0.0 2.0 0.00 0.04 0.00 86 1015.6
20210418161417 50 112 0.0 5.0 0.00 0.04 0.00 86 1015.4
20210418160913 50 45 2.0 3.0 0.00 0.04 0.00 86 1015.4
20210418160426 50 90 1.0 3.0 0.00 0.04 0.00 86 1015.4
20210418155914 50 45 3.0 5.0 0.02 0.04 0.00 86 1015.5
20210418155747 50 22 0.0 2.0 0.02 0.04 0.00 86 1015.4
20210418154952 49 45 1.0 4.0 0.02 0.04 0.00 86 1015.4
20210418154422 49 67 1.0 4.0 0.02 0.04 0.00 85 1015.3
20210418153913 49 22 0.0 4.0 0.02 0.04 0.00 85 1015.5
20210418153415 49 45 3.0 5.0 0.02 0.04 0.00 85 1015.4
20210418152915 49 67 2.0 4.0 0.02 0.04 0.00 84 1015.5
20210418152630 49 112 0.0 3.0 0.02 0.04 0.00 83 1015.4
20210418152041 49 45 1.0 4.0 0.02 0.04 0.00 82 1015.5
20210418151419 49 45 0.0 4.0 0.02 0.04 0.00 80 1015.7
20210418150914 50 90 0.0 3.0 0.02 0.04 0.00 78 1015.7
20210418150431 51 45 1.0 8.0 0.00 0.02 0.00 77 1015.9
20210418145914 52 45 6.0 7.0 0.00 0.02 0.00 75 1016.0
20210418145732 53 67 0.0 12.0 0.00 0.02 0.00 72 1015.9
20210418144920 54 22 4.0 10.0 0.00 0.02 0.00 71 1015.8
20210418144422 54 45 2.0 3.0 0.00 0.02 0.00 71 1015.6
20210418143929 54 90 2.0 4.0 0.00 0.02 0.00 71 1015.6
20210418143421 54 90 4.0 4.0 0.00 0.02 0.00 72 1015.6
20210418142943 53 112 2.0 3.0 0.00 0.02 0.00 72 1015.6
20210418142745 53 135 0.0 2.0 0.00 0.02 0.00 71 1015.5
20210418142123 54 135 0.0 0.0 0.00 0.02 0.00 70 1015.5
20210418141421 55 157 0.0 5.0 0.00 0.02 0.00 68 1015.5
20210418140914 56 157 3.0 3.0 0.00 0.02 0.00 66 1015.5
20210418140418 57 202 0.0 3.0 0.00 0.02 0.00 64 1015.5
20210418135947 57 157 6.0 6.0 0.00 0.04 0.00 61 1015.5
20210418135837 57 112 3.0 8.0 0.00 0.04 0.00 61 1015.4
20210418135048 57 135 2.0 4.0 0.00 0.04 0.00 62 1015.4
20210418134422 58 22 0.0 3.0 0.00 0.04 0.00 63 1015.2
20210418133916 58 67 0.0 2.0 0.00 0.04 0.00 62 1015.1
20210418133417 58 67 0.0 4.0 0.00 0.04 0.00 61 1015.4
20210418132914 58 22 2.0 4.0 0.00 0.04 0.00 61 1015.5
20210418132709 58 112 3.0 5.0 0.00 0.04 0.00 60 1015.5
20210418131958 58 67 1.0 12.0 0.00 0.04 0.00 60 1015.3
20210418131418 59 0 1.0 9.0 0.00 0.04 0.00 60 1015.5
20210418130914 58 22 7.0 7.0 0.00 0.04 0.00 61 1015.4